Flag for U.S.A. Weather past 2 weeks in Peoria, Illinois, U.S.A.

Now
68 °F

Clear.


Feels Like: 68 °F
Forecast: 62 / 82 °F
Wind: No wind

Location: Greater Peoria Regional Airport

Current Time: Jul 3, 2015 at 11:27:12 PM

Latest Report: Jul 3, 2015 at 10:54 PM


Visibility: 9 mi

Pressure: 29.94 "Hg

Humidity: 73%

Dew point: 59 °F

Location of PeoriaLocation

Historic Weather in Peoria — Graph

°F

Peoria temperature yesterday

Maximum temperature yesterday: 76 °F (at 3:54 PM)
Minimum temperature yesterday: 60 °F (at 4:54 AM)
Average temperature yesterday: 68 °F

Past Weeks' High & Low Weather Summary

 TemperatureHumidityPressure
High89 °F (Jun 22, 3:54 PM)90% (Jun 25, 3:54 AM)30.21 "Hg (Jun 25, 3:54 AM)
Low60 °F (Jul 2, 4:54 AM)39% (Jun 23, 2:54 PM)29.75 "Hg (Jun 29, 2:54 AM)
Average73 °F73%29.93 "Hg
* Reported Jun 18 9:54 PM — Jul 3 9:54 PM, Peoria, Weather by CustomWeather, © 2015

Note: Actual official high and low records may vary slightly from our data, if they occured in-between our weather recording intervals... More about our weather records

Advertising

Peoria weather history for previous 24 hours

 ConditionsComfort  
Time TempWeatherWind HumidityBarometerVisibility
9:54 PM
Fri, Jul 3
69 °FClear.No wind73%29.93 "Hg9 mi
8:54 PM71 °FSunny.3 mph71%29.91 "Hg8 mi
7:54 PM76 °FSunny.3 mph56%29.90 "Hg10 mi
6:54 PM78 °FSunny.3 mph52%29.89 "Hg10 mi
5:54 PM80 °FPassing clouds.5 mph49%29.90 "Hg10 mi
4:54 PM81 °FPassing clouds.6 mph49%29.90 "Hg10 mi
3:54 PM82 °FPassing clouds.7 mph49%29.91 "Hg10 mi
2:54 PM80 °FPassing clouds.5 mph51%29.93 "Hg10 mi
1:54 PM80 °FScattered clouds.6 mph52%29.93 "Hg10 mi
12:54 PM78 °FBroken clouds.7 mph58%29.94 "Hg10 mi
11:54 AM76 °FSunny.3 mph60%29.94 "Hg10 mi
10:54 AM74 °FScattered clouds.6 mph64%29.94 "Hg10 mi
9:54 AM70 °FScattered clouds.6 mph68%29.95 "Hg10 mi
8:54 AM66 °FScattered clouds.8 mph73%29.95 "Hg10 mi
7:54 AM64 °FPartly sunny.7 mph75%29.95 "Hg10 mi
6:54 AM63 °FOvercast.7 mph75%29.94 "Hg10 mi
5:54 AM63 °FMostly cloudy.3 mph75%29.93 "Hg10 mi
4:54 AM63 °FLight rain. Overcast.8 mph78%29.90 "Hg10 mi
3:54 AM64 °FPassing clouds.9 mph75%29.92 "Hg10 mi
2:54 AM65 °FClear.9 mph73%29.93 "Hg10 mi
1:54 AM66 °FPassing clouds.9 mph70%29.94 "Hg10 mi
12:54 AM67 °FClear.12 mph68%29.94 "Hg10 mi
11:54 PM
Thu, Jul 2
68 °FClear.9 mph68%29.94 "Hg10 mi
Weather by CustomWeather, © 2015

See weather overviewHow to use our weather pages